Regional Weather Roundup
Issued by NWS

Home | Current Version | Previous Version | Text Only | Print | Product List | Glossary On
Versions: 1 2 3 4 5 6 7 8 9 10 11 12 13 14 15 16 17 18 19 20 21 22 23 24 25 26 27 28 29 30 31 32 33 34 35 36 37 38 39 40 41 42 43 44 45 46 47 48 49 50
000
ASUS45 KABQ 240510
RWRNM
WEATHER ROUNDUP FOR NEW MEXICO
NATIONAL WEATHER SERVICE ALBUQUERQUE NM
1100 PM MDT WED JUL 23 2014

NOTE: "FAIR" MEANS FEW OR NO CLOUDS BELOW 12,000 FEET AGL WITH NO
       SIGNIFICANT WEATHER OR OBSTRUCTIONS TO VISION.

      THIS PRODUCT IS RELEASED AS TWO VERSIONS.  ONE VERSION NEAR
      THE TOP OF THE HOUR CONTAINING PRELIMINARY DATA FROM ALBUQUERQUE
      AND OTHER STATIONS.  A FINAL VERSION WITH ADDITIONAL DATA IS
      ISSUED ABOUT 10 MINUTES AFTER THE HOUR.

NMZ501-503-504-510>518-240600-
NORTHWEST PLATEAU/NORTHCENTRAL MOUNTAINS

CITY           SKY/WX    TMP DP  RH WIND       PRES   REMARKS
FARMINGTON     CLEAR     79  49  34 VRB5      30.27R
LOS ALAMOS     CLEAR     69  46  42 S6        30.48R
SANTA FE       CLEAR     67  53  61 E8        30.40R
TAOS           CLEAR     61  48  63 NE6       30.49S
ANGEL FIRE     FAIR      49  45  87 CALM      30.60S

$$
NMZ402-403-502-505>509-240600-
WESTCENTRAL MOUNTAINS/SOUTHWEST MOUNTAINS

CITY           SKY/WX    TMP DP  RH WIND       PRES   REMARKS
GALLUP         PTCLDY    64  55  72 SE3       30.38R
GRANTS         CLEAR     69  51  52 SE6       30.40R
SILVER CITY    CLEAR     75  43  31 E9        30.31R

$$
NMZ407-409-411-412-240600-
SOUTHERN DESERTS

CITY           SKY/WX    TMP DP  RH WIND       PRES   REMARKS
LORDSBURG      FAIR      77  45  31 SE6       30.18R
DEMING         CLEAR     78  48  34 E5        30.19R
LAS CRUCES     CLEAR     80  43  26 E5        30.23R
HOLLOMAN AFB   PTCLDY    82  45  26 SE3       30.20R
ALAMOGORDO     PTCLDY    82  45  26 SE9       30.22R
T OR C         LGT RAIN  78  51  38 E6        30.25R

$$
NMZ519>523-240600-
CENTRAL VALLEYS/CENTRAL HIGHLANDS

CITY           SKY/WX    TMP DP  RH WIND       PRES   REMARKS
ALBUQUERQUE    PTCLDY    78  48  34 S8        30.31R
DOUBLE EAGLE   PTCLDY    69  54  57 CALM      30.36R
MORIARTY ARPT  FAIR      69  46  44 SE8       30.41R
CLINES CORNERS CLEAR     66  49  54 SE8       30.46R
BELEN          FAIR      74  55  50 CALM      30.29S
SOCORRO        CLOUDY    80  48  33 S6        30.26R

$$
NMZ524>526-539-540-240600-
SOUTHCENTRAL MOUNTAINS

CITY           SKY/WX    TMP DP  RH WIND       PRES   REMARKS
RUIDOSO        PTCLDY    66  45  45 MISG      30.47S

$$
NMZ527>531-240600-
NORTHEAST HIGHLANDS/NORTHEAST PLAINS

CITY           SKY/WX    TMP DP  RH WIND       PRES   REMARKS
LAS VEGAS      CLEAR     67  46  47 S7        30.46R
RATON          NOT AVBL
CLAYTON        CLEAR     73  50  44 S9        30.31R

$$
NMZ532>537-240600-
EASTCENTRAL PLAINS

CITY           SKY/WX    TMP DP  RH WIND       PRES   REMARKS
TUCUMCARI      CLEAR     78  57  48 S3        30.23R
CANNON AFB     CLEAR     72  60  66 SE6       30.28R
CLOVIS AIRPORT NOT AVBL

$$
NMZ028-029-538-240600-
SOUTHEAST PLAINS

CITY           SKY/WX    TMP DP  RH WIND       PRES   REMARKS
ROSWELL        CLEAR     80  53  39 SE7       30.19R
ARTESIA        CLEAR     84  52  32 SE10      30.18S
CARLSBAD       MOCLDY    87  50  27 SE8       30.16R
HOBBS          CLEAR     81  50  34 E9        30.23S


$$



USA.gov is the U.S. government's official web portal to all federal, state and local government web resources and services.